[[{"header":{"parameterUnit":"m.s-1","parameterCategory":2,"la1":30.2992,"la2":30.254,"lo1":-89.0895,"lo2":-89.0443,"dy":0.0025,"dx":0.0025,"nx":19,"ny":19,"refTime":"2026-05-05T03:00:00:Z","depth":"0","parameterNumber":2,"parameterNumberName":"U-component_of_CURRENTS"},"data":[0,0,0,-0.2482,-0.2483,-0.2544,-0.2544,-0.2641,-0.2642,0,0,0,0,0,0,0,0,0,0,0,-0.245,-0.245,-0.2482,-0.2484,-0.2544,-0.2544,-0.264,-0.2642,0,0,0,0,0,0,0,0,0,0,0,-0.2449,-0.245,-0.245,-0.2484,-0.2544,-0.2544,-0.264,-0.2589,0,0,0,0,0,0,0,0,0,0,-0.2527,-0.248,-0.245,-0.245,-0.2484,-0.2544,-0.2544,-0.2586,-0.2592,-0.262,0,-0.2624,0,-0.2644,-0.2649,-0.2649,0,0,0,-0.2479,-0.2475,-0.2511,-0.245,-0.2485,-0.2544,-0.2516,-0.2589,-0.2596,-0.2628,-0.2626,-0.263,-0.2645,-0.265,-0.265,-0.2696,-0.2696,0,0,-0.2476,-0.2445,-0.2506,-0.2515,-0.2496,-0.2514,-0.2518,-0.2593,-0.2587,-0.2626,-0.2632,-0.2647,-0.265,-0.2651,-0.2697,-0.2696,0,0,0,-0.2469,-0.2443,-0.2475,-0.251,-0.2525,-0.2516,-0.252,-0.2583,-0.2599,-0.2633,-0.2648,-0.2651,-0.2652,-0.2697,-0.2696,-0.2741,0,0,0,-0.2467,-0.244,-0.2474,-0.2454,-0.2523,-0.2549,-0.2508,-0.2594,-0.2603,-0.2647,-0.2651,-0.2653,-0.2697,-0.2697,-0.2741,-0.2748,0,0,0,-0.2448,-0.2438,-0.2447,-0.2453,-0.2485,-0.2548,-0.2568,-0.2596,-0.2613,-0.2649,-0.2654,-0.2698,-0.2697,-0.2741,-0.2747,-0.2724,0,0,0,-0.2412,-0.2439,-0.2446,-0.2495,-0.2484,-0.2566,-0.2567,-0.2613,-0.2644,-0.2651,-0.2697,-0.2697,-0.274,-0.2747,-0.2724,-0.2468,-0.2447,0,0,-0.2436,-0.244,-0.248,-0.2489,-0.2572,-0.2558,-0.2621,-0.2649,-0.2638,-0.2674,-0.2675,-0.2741,-0.2747,-0.2724,-0.2426,-0.2406,0,0,0,-0.2484,-0.2493,-0.2526,-0.2572,-0.2633,-0.2656,-0.2677,-0.2669,-0.2676,-0.2654,-0.2713,-0.2715,-0.2699,-0.2544,-0.2528,-0.2444,-0.2693,-0.2693,-0.2693,-0.2422,-0.2497,-0.2549,-0.2627,-0.2677,-0.2719,-0.2729,-0.271,-0.2716,-0.2698,-0.2732,-0.2716,-0.255,-0.2536,-0.2453,-0.2715,-0.2715,-0.2715,-0.2715,-0.2421,-0.2459,-0.2538,-0.2606,-0.2672,-0.2715,-0.2765,-0.2756,-0.2747,-0.2737,-0.272,-0.2574,-0.2521,-0.2439,-0.2718,-0.2717,-0.2717,-0.2717,-0.2717,-0.2349,-0.2389,-0.2426,-0.2517,-0.2593,-0.268,-0.2719,-0.276,-0.276,-0.2765,-0.2553,-0.2548,-0.2491,-0.2746,-0.2746,-0.2746,-0.2746,-0.2746,-0.2746,-0.2267,-0.2323,-0.2309,-0.2429,-0.2463,-0.256,-0.2673,-0.2678,-0.2604,-0.2556,-0.2553,-0.244,-0.2724,-0.274,-0.2745,-0.2745,-0.2745,-0.2745,-0.2745,-0.2171,-0.2185,-0.2137,-0.215,-0.2249,-0.2161,-0.2425,-0.2325,-0.2386,-0.2269,-0.2173,-0.2426,-0.2376,-0.2384,-0.2389,-0.2304,-0.2304,-0.2304,-0.2304,-0.205,-0.2087,-0.1901,-0.1841,-0.1887,-0.1933,-0.1701,-0.1781,-0.1856,-0.1842,-0.1952,-0.1886,-0.1908,-0.1832,-0.1852,-0.1847,-0.1626,-0.1625,-0.1625,-0.1909,-0.1877,-0.1645,-0.1603,-0.1631,-0.156,-0.1107,-0.0992,-0.1343,-0.1603,-0.1895,-0.1924,-0.1843,-0.1883,-0.1778,-0.1813,-0.181,0,0]},{"header":{"parameterUnit":"m.s-1","parameterCategory":2,"la1":30.2992,"la2":30.254,"lo1":-89.0895,"lo2":-89.0443,"dy":0.0025,"dx":0.0025,"nx":19,"ny":19,"refTime":"2026-05-05T03:00:00:Z","depth":"0","parameterNumber":3,"parameterNumberName":"V-component_of_CURRENTS"},"data":[0,0,0,-0.0297,-0.0295,-0.018,-0.0179,0.0035,0.0037,0,0,0,0,0,0,0,0,0,0,0,-0.0335,-0.0335,-0.0297,-0.0295,-0.018,-0.0179,0.0035,0.0037,0,0,0,0,0,0,0,0,0,0,0,-0.0335,-0.0335,-0.0335,-0.0295,-0.018,-0.0179,0.0035,-0.0063,0,0,0,0,0,0,0,0,0,0,-0.0181,-0.0238,-0.0335,-0.0335,-0.0295,-0.018,-0.0179,-0.0068,-0.0057,-0.0007,0,-0.0006,0,0.001,0.005,0.0051,0,0,0,-0.0268,-0.0248,-0.0219,-0.0335,-0.0294,-0.018,-0.0224,-0.0062,-0.0049,0.0008,-0.0003,0.0004,0.0013,0.0052,0.0053,0.0116,0.0115,0,0,-0.0275,-0.0303,-0.0228,-0.0212,-0.0284,-0.0228,-0.0221,-0.0055,-0.0047,-0.0002,0.0009,0.0017,0.0053,0.0055,0.0116,0.0115,0,0,0,-0.0311,-0.0308,-0.0283,-0.022,-0.021,-0.0225,-0.0217,-0.0054,-0.0048,0.0012,0.0019,0.0054,0.0057,0.0117,0.0116,0.0022,0,0,0,-0.0314,-0.0331,-0.0287,-0.03,-0.0215,-0.0141,-0.0221,-0.0059,-0.004,0.0018,0.0054,0.0059,0.0118,0.0117,0.0027,0.0016,0,0,0,-0.0337,-0.0333,-0.0327,-0.0303,-0.0265,-0.0144,-0.0126,-0.0054,-0.0036,0.0051,0.0059,0.0119,0.0117,0.0031,0.0022,0.0096,0,0,0,-0.0357,-0.0394,-0.0328,-0.0358,-0.0267,-0.0245,-0.0127,-0.0085,-0.0025,0.0055,0.0118,0.0116,0.0032,0.0026,0.0098,0.0275,0.0282,0,0,-0.0425,-0.0402,-0.0421,-0.036,-0.0378,-0.0258,-0.0246,-0.0113,-0.0034,0.0076,0.0077,0.0025,0.0023,0.0096,0.0164,0.0175,0,0,0,-0.0457,-0.0474,-0.0467,-0.0454,-0.0404,-0.0336,-0.0221,-0.0157,-0.0064,-0.0011,0.0013,0.0014,0.0065,0.0174,0.0181,0.0402,0.0107,0.0107,0.0108,-0.0572,-0.0544,-0.0578,-0.0537,-0.0501,-0.0386,-0.0317,-0.0207,-0.0134,-0.0122,-0.0073,-0.0096,0.0013,0.0023,0.0244,-0.0101,-0.0102,-0.0102,-0.0102,-0.0687,-0.0699,-0.0652,-0.0678,-0.0584,-0.0546,-0.0381,-0.0312,-0.0181,-0.0161,-0.0108,0.0053,0.0026,0.0259,-0.0109,-0.0108,-0.0107,-0.0106,-0.0106,-0.0769,-0.0765,-0.0782,-0.0788,-0.0742,-0.0625,-0.0475,-0.0386,-0.0249,-0.0211,0.0005,0.001,0.0237,-0.0164,-0.0164,-0.0163,-0.0163,-0.0163,-0.0163,-0.0823,-0.0837,-0.0875,-0.0887,-0.087,-0.0775,-0.0535,-0.0377,-0.0158,-0.0049,-0.0046,0.0262,-0.0111,-0.0084,-0.016,-0.016,-0.0161,-0.0161,-0.0161,-0.0845,-0.0873,-0.0934,-0.0951,-0.0915,-0.0747,-0.0525,-0.0058,0.0069,0.0233,0.0455,0.0078,0.0159,0.0156,0.0191,0.0192,0.0192,0.0192,0.0192,-0.0834,-0.0865,-0.09,-0.0925,-0.0888,-0.0711,-0.017,0.0296,0.0673,0.08,0.0719,0.0765,0.0741,0.0857,0.0837,0.0888,0.1065,0.1066,0.1067,-0.0783,-0.0824,-0.0813,-0.0881,-0.0847,-0.0582,0.0006,0.0697,0.11,0.1117,0.0988,0.0951,0.1025,0.097,0.1154,0.1109,0.1191,0,0]}],[{"header":{"parameterUnit":"m.s-1","parameterCategory":2,"la1":30.2992,"la2":30.254,"lo1":-89.0895,"lo2":-89.0443,"dy":0.0025,"dx":0.0025,"nx":19,"ny":19,"refTime":"2026-05-05T03:00:00:Z","depth":"2","parameterNumber":2,"parameterNumberName":"U-component_of_CURRENTS"},"data":[0,0,0,-0.2379,-0.2381,-0.2447,-0.2447,-0.2508,-0.2509,0,0,0,0,0,0,0,0,0,0,0,-0.2346,-0.2347,-0.2379,-0.2381,-0.2447,-0.2447,-0.2508,-0.2509,0,0,0,0,0,0,0,0,0,0,0,-0.2346,-0.2347,-0.2347,-0.2381,-0.2447,-0.2447,-0.2508,-0.2463,0,0,0,0,0,0,0,0,0,0,-0.2401,-0.2364,-0.2346,-0.2347,-0.2382,-0.2447,-0.2447,-0.2461,-0.2466,-0.2474,0,-0.2482,0,-0.2504,-0.2513,-0.2513,0,0,0,-0.2376,-0.236,-0.2393,-0.2347,-0.2382,-0.2447,-0.2416,-0.2464,-0.2469,-0.248,-0.2483,-0.2486,-0.2505,-0.2513,-0.2514,-0.2554,-0.2554,0,0,-0.2372,-0.2345,-0.2389,-0.2396,-0.2397,-0.2414,-0.2418,-0.2467,-0.2462,-0.2483,-0.2487,-0.2506,-0.2514,-0.2514,-0.2554,-0.2554,0,0,0,-0.2365,-0.2342,-0.2374,-0.2393,-0.2411,-0.2416,-0.242,-0.2459,-0.2474,-0.2488,-0.2506,-0.2514,-0.2515,-0.2554,-0.2554,-0.2602,0,0,0,-0.2363,-0.2339,-0.2372,-0.2354,-0.241,-0.2437,-0.2411,-0.247,-0.2477,-0.2506,-0.2514,-0.2515,-0.2554,-0.2554,-0.2601,-0.2606,0,0,0,-0.2344,-0.2337,-0.2347,-0.2353,-0.2387,-0.2437,-0.2454,-0.2472,-0.2489,-0.2513,-0.2516,-0.2554,-0.2554,-0.26,-0.2604,-0.2579,0,0,0,-0.231,-0.2338,-0.2346,-0.2393,-0.2386,-0.2463,-0.2454,-0.2498,-0.2521,-0.2514,-0.2554,-0.2554,-0.26,-0.2603,-0.2579,-0.2365,-0.235,0,0,-0.2336,-0.234,-0.2376,-0.2386,-0.2464,-0.2454,-0.2517,-0.2534,-0.2519,-0.2535,-0.2536,-0.2601,-0.2604,-0.2579,-0.2363,-0.2348,0,0,0,-0.238,-0.2392,-0.2422,-0.2466,-0.252,-0.2546,-0.2564,-0.2559,-0.2565,-0.2534,-0.2587,-0.2586,-0.2569,-0.2439,-0.2427,-0.2554,-0.2554,-0.2554,-0.2554,-0.2335,-0.2399,-0.245,-0.252,-0.2566,-0.2608,-0.2621,-0.2607,-0.2605,-0.26,-0.2616,-0.2616,-0.2478,-0.2466,-0.2613,-0.2613,-0.2613,-0.2613,-0.2613,-0.2343,-0.235,-0.2448,-0.2514,-0.2572,-0.2617,-0.2662,-0.2657,-0.2648,-0.264,-0.2622,-0.2484,-0.2455,-0.2617,-0.2616,-0.2616,-0.2615,-0.2615,-0.2615,-0.2274,-0.2276,-0.2351,-0.2439,-0.2515,-0.2596,-0.2636,-0.2669,-0.2666,-0.267,-0.2485,-0.2481,-0.263,-0.2652,-0.2652,-0.2652,-0.2652,-0.2652,-0.2652,-0.212,-0.2202,-0.2226,-0.2351,-0.24,-0.249,-0.2602,-0.2604,-0.2537,-0.2496,-0.2494,-0.2627,-0.2626,-0.263,-0.2651,-0.2651,-0.2651,-0.2651,-0.2651,-0.1956,-0.2011,-0.2039,-0.2094,-0.2239,-0.2274,-0.2434,-0.2379,-0.2381,-0.2284,-0.2378,-0.2385,-0.2336,-0.2342,-0.2337,-0.2281,-0.2281,-0.2281,-0.2281,-0.1798,-0.185,-0.1847,-0.1922,-0.2021,-0.2161,-0.208,-0.2042,-0.2041,-0.1996,-0.2009,-0.1961,-0.1981,-0.1911,-0.1927,-0.1914,-0.1748,-0.1748,-0.1747,-0.1648,-0.1687,-0.165,-0.1797,-0.1921,-0.2003,-0.1854,-0.161,-0.1507,-0.1734,-0.1997,-0.223,-0.2192,-0.2211,-0.213,-0.2146,-0.2135,0,0]},{"header":{"parameterUnit":"m.s-1","parameterCategory":2,"la1":30.2992,"la2":30.254,"lo1":-89.0895,"lo2":-89.0443,"dy":0.0025,"dx":0.0025,"nx":19,"ny":19,"refTime":"2026-05-05T03:00:00:Z","depth":"2","parameterNumber":3,"parameterNumberName":"V-component_of_CURRENTS"},"data":[0,0,0,-0.0363,-0.0361,-0.025,-0.0249,-0.0071,-0.0069,0,0,0,0,0,0,0,0,0,0,0,-0.04,-0.04,-0.0363,-0.0361,-0.025,-0.0249,-0.0071,-0.0069,0,0,0,0,0,0,0,0,0,0,0,-0.04,-0.04,-0.0399,-0.0361,-0.025,-0.0249,-0.0071,-0.0158,0,0,0,0,0,0,0,0,0,0,-0.0269,-0.032,-0.04,-0.0399,-0.0361,-0.025,-0.0249,-0.0162,-0.0153,-0.0119,0,-0.0117,0,-0.01,-0.0059,-0.0058,0,0,0,-0.0336,-0.0328,-0.03,-0.0399,-0.036,-0.025,-0.0293,-0.0157,-0.0146,-0.0106,-0.0115,-0.0108,-0.0097,-0.0058,-0.0057,0.0035,0.0035,0,0,-0.0342,-0.037,-0.0308,-0.0294,-0.035,-0.0297,-0.029,-0.0151,-0.0145,-0.0114,-0.0104,-0.0094,-0.0057,-0.0056,0.0036,0.0035,0,0,0,-0.0377,-0.0375,-0.035,-0.0301,-0.029,-0.0294,-0.0286,-0.0151,-0.0144,-0.0102,-0.0092,-0.0056,-0.0054,0.0036,0.0036,-0.0058,0,0,0,-0.0379,-0.0397,-0.0353,-0.0367,-0.0293,-0.0225,-0.029,-0.0153,-0.0138,-0.0093,-0.0056,-0.0052,0.0036,0.0036,-0.0056,-0.0081,0,0,0,-0.0402,-0.0398,-0.0392,-0.0369,-0.0333,-0.0227,-0.0211,-0.0149,-0.0132,-0.0058,-0.0052,0.0036,0.0036,-0.0053,-0.0077,-0.0025,0,0,0,-0.0423,-0.0452,-0.0393,-0.0412,-0.0334,-0.0298,-0.0211,-0.0168,-0.0115,-0.0055,0.0036,0.0036,-0.0052,-0.0074,-0.0024,0.0079,0.0081,0,0,-0.0479,-0.0459,-0.0469,-0.0415,-0.0417,-0.0311,-0.0284,-0.0178,-0.0104,-0.0002,0.0,-0.0057,-0.0077,-0.0025,0.0058,0.0061,0,0,0,-0.05,-0.0514,-0.0502,-0.0483,-0.0427,-0.036,-0.0258,-0.0199,-0.0107,-0.0078,-0.0037,-0.0046,-0.0011,0.0055,0.0057,0.0034,0.0034,0.0034,0.0034,-0.0609,-0.0574,-0.0597,-0.0548,-0.0505,-0.0389,-0.0324,-0.0218,-0.0154,-0.013,-0.011,-0.0117,-0.0051,-0.0047,-0.0101,-0.0101,-0.0102,-0.0102,-0.0102,-0.0715,-0.0738,-0.0667,-0.0683,-0.0585,-0.0538,-0.0374,-0.0309,-0.019,-0.0162,-0.0123,-0.0033,-0.005,-0.0109,-0.0108,-0.0107,-0.0106,-0.0106,-0.0105,-0.0803,-0.0816,-0.0807,-0.0805,-0.0751,-0.0628,-0.0508,-0.0401,-0.0267,-0.0236,-0.0084,-0.0081,-0.0143,-0.02,-0.0199,-0.0199,-0.0199,-0.0199,-0.0199,-0.0912,-0.0903,-0.0966,-0.093,-0.0931,-0.0826,-0.0592,-0.0458,-0.0257,-0.0151,-0.0149,-0.0147,-0.0144,-0.0144,-0.0198,-0.0198,-0.0198,-0.0198,-0.0199,-0.1058,-0.1045,-0.1142,-0.1171,-0.1155,-0.1073,-0.0757,-0.0358,-0.0189,-0.0062,-0.0066,-0.0069,-0.0006,-0.0006,-0.0,-0.0013,-0.0013,-0.0013,-0.0013,-0.1163,-0.1159,-0.132,-0.1415,-0.1414,-0.1221,-0.0858,-0.0369,-0.0039,0.0002,0.0,0.0005,-0.0001,0.0063,0.0062,0.0068,0.0073,0.0073,0.0073,-0.1274,-0.1294,-0.1445,-0.1532,-0.1582,-0.1358,-0.1011,-0.0404,-0.0055,0.0067,-0.0076,0.001,0.0016,0.0006,0.0106,0.0103,0.0115,0,0]}],[{"header":{"parameterUnit":"m.s-1","parameterCategory":2,"la1":30.2992,"la2":30.254,"lo1":-89.0895,"lo2":-89.0443,"dy":0.0025,"dx":0.0025,"nx":19,"ny":19,"refTime":"2026-05-05T03:00:00:Z","depth":"4","parameterNumber":2,"parameterNumberName":"U-component_of_CURRENTS"},"data":[0,0,0,-0.1833,-0.1837,-0.2009,-0.201,-0.2097,-0.2098,0,0,0,0,0,0,0,0,0,0,0,-0.1776,-0.1777,-0.1833,-0.1837,-0.2009,-0.201,-0.2097,-0.2098,0,0,0,0,0,0,0,0,0,0,0,-0.1775,-0.1777,-0.1778,-0.1838,-0.2009,-0.201,-0.2097,-0.2001,0,0,0,0,0,0,0,0,0,0,-0.185,-0.1818,-0.1776,-0.1778,-0.1839,-0.2009,-0.201,-0.1998,-0.2007,-0.198,0,-0.2016,0,-0.2054,-0.21,-0.21,0,0,0,-0.184,-0.1811,-0.1854,-0.1779,-0.184,-0.2009,-0.1932,-0.2004,-0.2014,-0.1992,-0.2018,-0.2022,-0.2056,-0.2101,-0.2101,-0.2167,-0.2167,0,0,-0.183,-0.1807,-0.1847,-0.1861,-0.1894,-0.1927,-0.1938,-0.2012,-0.2024,-0.2018,-0.2025,-0.2057,-0.2101,-0.2101,-0.2166,-0.2167,0,0,0,-0.1801,-0.18,-0.1844,-0.1856,-0.1896,-0.1932,-0.1944,-0.2021,-0.2036,-0.2026,-0.2058,-0.2101,-0.2102,-0.2166,-0.2166,-0.2201,0,0,0,-0.1795,-0.1783,-0.184,-0.1828,-0.1895,-0.198,-0.1952,-0.2031,-0.2041,-0.2058,-0.2101,-0.2102,-0.2165,-0.2166,-0.2199,-0.2213,0,0,0,-0.1766,-0.178,-0.1803,-0.1826,-0.19,-0.198,-0.2,-0.2035,-0.2059,-0.2101,-0.2102,-0.2165,-0.2166,-0.2197,-0.221,-0.2191,0,0,0,-0.1732,-0.1778,-0.1802,-0.1867,-0.1898,-0.1996,-0.2001,-0.2082,-0.2123,-0.2101,-0.2165,-0.2166,-0.2197,-0.2208,-0.219,-0.1908,0,0,0,-0.1767,-0.1782,-0.182,-0.1846,-0.1936,-0.1972,-0.2058,-0.2115,-0.2123,-0.213,-0.2134,-0.22,-0.221,-0.219,-0.1972,0,0,0,0,-0.1816,-0.1843,-0.1876,-0.1939,-0.2004,-0.2067,-0.2124,-0.2143,-0.2193,-0.2153,-0.2211,-0.2216,-0.2203,-0.2036,-0.2171,-0.2171,-0.2171,-0.2171,-0.2171,-0.1807,-0.186,-0.1927,-0.1997,-0.2058,-0.2138,-0.2181,-0.2214,-0.2217,-0.2248,-0.2253,-0.2275,-0.2103,-0.2263,-0.2263,-0.2263,-0.2263,-0.2264,-0.2264,-0.1835,-0.185,-0.1953,-0.204,-0.2109,-0.2183,-0.2245,-0.2263,-0.229,-0.2296,-0.228,-0.2096,-0.2267,-0.2267,-0.2266,-0.2266,-0.2265,-0.2265,-0.2265,-0.178,-0.1788,-0.189,-0.2007,-0.2119,-0.221,-0.2247,-0.231,-0.2322,-0.2327,-0.2121,-0.2288,-0.2272,-0.2315,-0.2315,-0.2315,-0.2315,-0.2315,-0.2315,-0.1639,-0.1741,-0.1798,-0.1961,-0.2029,-0.213,-0.225,-0.2234,-0.2273,-0.2127,-0.2335,-0.2292,-0.229,-0.2275,-0.2315,-0.2315,-0.2315,-0.2315,-0.2315,-0.1498,-0.1566,-0.1629,-0.1706,-0.1849,-0.1914,-0.2098,-0.2039,-0.1993,-0.1892,-0.1998,-0.2014,-0.1965,-0.1972,-0.1943,-0.1887,-0.1883,-0.188,0,-0.1363,-0.1415,-0.1455,-0.1511,-0.1551,-0.1745,-0.1647,-0.1693,-0.1726,-0.1677,-0.1949,-0.207,-0.2079,-0.2028,-0.2028,-0.1994,0,0,0,-0.1251,-0.1291,-0.127,-0.1369,-0.1399,-0.1446,-0.1605,-0.1536,-0.1771,-0.1638,-0.1792,-0.1815,-0.2101,-0.2315,-0.2279,-0.2277,-0.2249,0,0]},{"header":{"parameterUnit":"m.s-1","parameterCategory":2,"la1":30.2992,"la2":30.254,"lo1":-89.0895,"lo2":-89.0443,"dy":0.0025,"dx":0.0025,"nx":19,"ny":19,"refTime":"2026-05-05T03:00:00:Z","depth":"4","parameterNumber":3,"parameterNumberName":"V-component_of_CURRENTS"},"data":[0,0,0,-0.0294,-0.0293,-0.022,-0.022,-0.0093,-0.0092,0,0,0,0,0,0,0,0,0,0,0,-0.0318,-0.0318,-0.0294,-0.0293,-0.022,-0.022,-0.0094,-0.0092,0,0,0,0,0,0,0,0,0,0,0,-0.0318,-0.0318,-0.0318,-0.0293,-0.0221,-0.022,-0.0094,-0.0152,0,0,0,0,0,0,0,0,0,0,-0.0224,-0.0264,-0.0318,-0.0318,-0.0293,-0.0221,-0.022,-0.0155,-0.0148,-0.0124,0,-0.0126,0,-0.0116,-0.0085,-0.0085,0,0,0,-0.0272,-0.0269,-0.025,-0.0318,-0.0292,-0.0221,-0.0247,-0.0151,-0.0144,-0.0115,-0.0125,-0.012,-0.0114,-0.0085,-0.0084,0.0041,0.0042,0,0,-0.0276,-0.0299,-0.0255,-0.0246,-0.0291,-0.025,-0.0245,-0.0147,-0.0146,-0.0124,-0.0117,-0.0112,-0.0084,-0.0083,0.0041,0.0041,0,0,0,-0.0302,-0.0302,-0.0284,-0.0251,-0.0245,-0.0248,-0.0243,-0.015,-0.0145,-0.0116,-0.011,-0.0083,-0.0082,0.004,0.0041,-0.0032,0,0,0,-0.0303,-0.0318,-0.0287,-0.0298,-0.0248,-0.0203,-0.0249,-0.0151,-0.014,-0.0111,-0.0083,-0.0081,0.0039,0.004,-0.0031,-0.0083,0,0,0,-0.0318,-0.032,-0.0317,-0.03,-0.0278,-0.0205,-0.0193,-0.0149,-0.0137,-0.0085,-0.0081,0.0039,0.004,-0.0031,-0.0081,-0.0066,0,0,0,-0.0335,-0.0352,-0.0318,-0.0323,-0.0279,-0.0233,-0.0193,-0.0155,-0.0115,-0.0083,0.0039,0.0041,-0.0031,-0.0079,-0.0065,-0.0154,0,0,0,-0.0368,-0.0356,-0.0356,-0.0324,-0.0307,-0.024,-0.0196,-0.0136,-0.008,0.0012,0.0015,-0.0032,-0.0081,-0.0066,-0.0073,0,0,0,0,-0.0372,-0.0383,-0.0368,-0.0349,-0.0295,-0.0245,-0.0171,-0.0126,-0.0047,-0.0053,0.0016,-0.0012,-0.0001,-0.0046,0.0047,0.0047,0.0047,0.0047,0.0047,-0.0457,-0.0419,-0.0429,-0.0379,-0.0336,-0.024,-0.0192,-0.0107,-0.0053,-0.0021,-0.0035,-0.0028,-0.0075,0.0019,0.0019,0.0018,0.0018,0.0018,0.0018,-0.0536,-0.0549,-0.0489,-0.0496,-0.0412,-0.0364,-0.0218,-0.0167,-0.0077,-0.004,-0.0025,-0.0076,0.0012,0.0013,0.0014,0.0015,0.0015,0.0016,0.0016,-0.0612,-0.0617,-0.062,-0.0621,-0.058,-0.0466,-0.0401,-0.028,-0.016,-0.0142,-0.0145,-0.006,-0.0095,-0.012,-0.012,-0.012,-0.012,-0.0121,-0.0121,-0.0701,-0.0698,-0.0766,-0.075,-0.076,-0.0699,-0.0517,-0.0428,-0.0277,-0.0237,-0.0158,-0.0074,-0.0069,-0.0099,-0.0123,-0.0123,-0.0122,-0.0122,-0.0122,-0.08,-0.0814,-0.091,-0.0953,-0.0967,-0.0902,-0.0728,-0.0505,-0.0425,-0.0347,-0.026,-0.0253,-0.0232,-0.0223,-0.0258,-0.033,-0.0331,-0.0333,0,-0.0877,-0.0886,-0.1034,-0.1122,-0.1144,-0.102,-0.0887,-0.0717,-0.0516,-0.0543,-0.0455,-0.0369,-0.0359,-0.0346,-0.0339,-0.0388,0,0,0,-0.095,-0.0983,-0.11,-0.1186,-0.1223,-0.102,-0.0843,-0.0773,-0.0559,-0.0445,-0.0364,-0.0356,-0.0241,-0.013,-0.0078,-0.0073,-0.0118,0,0]}]]